Location: Derby
(52.9213°N, 1.4761°W)
Time: 01:55:33
(UTC+01:00)

A-11 Canister half - Pass Details

Date: 22 May 2025
Orbit: 1524 x 1684 km, 47.3° (Epoch: 12 June)

Event Time Altitude Azimuth Distance (km) Brightness Sun altitude
Rises 01:37:37 0° 285° (WNW) 4,797 11.7 -16.3°
Reaches altitude 10° 01:41:04 10° 276° (W) 3,833 11.1 -16.2°
Maximum altitude 01:49:20 33° 218° (SW) 2,527 9.7 -16.0°
Enters shadow 01:56:03 16° 167° (SSE) 3,479 10.3 -15.8°
